THY88 LOWW-EGLL

Flight info

Callsign THY88
Flight time N/A
Altitude 40000
Route BUWUT DCT DITIS DCT IPDUL DCT OKG DCT VELIS DCT SWALM DCT TIVUN DCT BREDA DCT ABNED L980 LOGAN
Aircraft A359/H-SDE2E3GHIJ1J3J4J5LM1ORWXY/LB1D1

Departure

Time 2026-04-25 22:18
Airport Vienna International Airport (LOWW)

Arrival

Time N/A
Airport London Heathrow Airport (EGLL)
Time Latitude Longitude Altitude Speed Heading
2026-04-25 21:45 48.11450 16.57146 595 ft 0 kts 208°
2026-04-25 22:04 48.11456 16.57150 619 ft 1 kts 205°
2026-04-25 22:04 48.11463 16.57156 632 ft 2 kts 208°
2026-04-25 22:04 48.11478 16.57167 632 ft 2 kts 199°
2026-04-25 22:05 48.11494 16.57170 631 ft 2 kts 155°
2026-04-25 22:05 48.11505 16.57153 631 ft 2 kts 114°
2026-04-25 22:05 48.11511 16.57131 630 ft 2 kts 114°
2026-04-25 22:05 48.11518 16.57109 630 ft 2 kts 114°
2026-04-25 22:06 48.11525 16.57088 630 ft 1 kts 114°
2026-04-25 22:06 48.11526 16.57083 630 ft 0 kts 115°
2026-04-25 22:09 48.11520 16.57104 630 ft 4 kts 115°
2026-04-25 22:10 48.11508 16.57141 631 ft 4 kts 115°
2026-04-25 22:10 48.11496 16.57179 631 ft 4 kts 115°
2026-04-25 22:10 48.11482 16.57225 627 ft 5 kts 115°
2026-04-25 22:10 48.11464 16.57286 626 ft 7 kts 114°
2026-04-25 22:11 48.11436 16.57361 631 ft 9 kts 135°
2026-04-25 22:11 48.11388 16.57373 627 ft 6 kts 191°
2026-04-25 22:11 48.11356 16.57357 634 ft 5 kts 200°
2026-04-25 22:11 48.11311 16.57334 633 ft 7 kts 189°
2026-04-25 22:12 48.11263 16.57378 629 ft 13 kts 124°
2026-04-25 22:12 48.11234 16.57478 631 ft 0 kts 112°
2026-04-25 22:13 48.11232 16.57484 631 ft 4 kts 113°
2026-04-25 22:13 48.11202 16.57573 632 ft 11 kts 129°
2026-04-25 22:13 48.11133 16.57598 631 ft 10 kts 172°
2026-04-25 22:13 48.11074 16.57647 632 ft 10 kts 161°
2026-04-25 22:14 48.11032 16.57641 631 ft 0 kts 202°
2026-04-25 22:16 48.11024 16.57635 634 ft 6 kts 202°
2026-04-25 22:16 48.10980 16.57606 633 ft 7 kts 204°
2026-04-25 22:16 48.10943 16.57573 638 ft 6 kts 224°
2026-04-25 22:17 48.10931 16.57507 635 ft 9 kts 276°
2026-04-25 22:17 48.10970 16.57370 637 ft 27 kts 295°
2026-04-25 22:17 48.11144 16.56825 642 ft 88 kts 296°
2026-04-25 22:17 48.11497 16.55742 632 ft 141 kts 296°
2026-04-25 22:18 48.11902 16.54407 1265 ft 130 kts 288°
2026-04-25 22:18 48.11894 16.53087 1639 ft 141 kts 247°
2026-04-25 22:18 48.11060 16.52160 1776 ft 163 kts 206°
2026-04-25 22:18 48.10094 16.51172 1881 ft 176 kts 230°
2026-04-25 22:19 48.09222 16.49797 2086 ft 193 kts 233°
2026-04-25 22:19 48.08316 16.48246 2465 ft 202 kts 234°
2026-04-25 22:19 48.07516 16.46507 2955 ft 206 kts 246°
2026-04-25 22:19 48.06875 16.44519 3318 ft 218 kts 249°
2026-04-25 22:20 48.06243 16.42416 3772 ft 225 kts 250°
2026-04-25 22:20 48.05605 16.40265 4339 ft 227 kts 249°
2026-04-25 22:20 48.04955 16.38098 4935 ft 230 kts 249°
2026-04-25 22:20 48.04295 16.35915 5552 ft 230 kts 250°
2026-04-25 22:21 48.03656 16.33725 6168 ft 230 kts 253°
2026-04-25 22:21 48.03330 16.31422 6678 ft 229 kts 270°
2026-04-25 22:21 48.03356 16.28994 6572 ft 244 kts 276°
2026-04-25 22:21 48.03653 16.26275 5094 ft 285 kts 285°
2026-04-25 22:22 48.04331 16.23410 4021 ft 302 kts 297°
2026-04-25 22:22 48.05554 16.20944 4035 ft 284 kts 313°
2026-04-25 22:22 48.06998 16.19132 4229 ft 260 kts 321°
2026-04-25 22:22 48.08426 16.17669 4508 ft 235 kts 331°
2026-04-25 22:23 48.09884 16.16698 4999 ft 229 kts 335°
2026-04-25 22:23 48.11348 16.15749 5624 ft 228 kts 332°
2026-04-25 22:23 48.12749 16.14637 6264 ft 228 kts 327°
2026-04-25 22:23 48.14065 16.13344 6843 ft 230 kts 322°
2026-04-25 22:24 48.15333 16.11885 7444 ft 230 kts 319°
2026-04-25 22:24 48.16559 16.10331 7980 ft 234 kts 317°
2026-04-25 22:24 48.17781 16.08705 8616 ft 234 kts 316°
2026-04-25 22:24 48.18991 16.07063 9169 ft 239 kts 316°
2026-04-25 22:25 48.20259 16.05335 9429 ft 254 kts 316°
2026-04-25 22:25 48.21606 16.03523 9801 ft 264 kts 316°
2026-04-25 22:25 48.22997 16.01667 10235 ft 272 kts 316°
2026-04-25 22:25 48.24426 15.99766 10697 ft 277 kts 316°
2026-04-25 22:26 48.25863 15.97860 11166 ft 281 kts 316°
2026-04-25 22:26 48.27343 15.95899 11660 ft 286 kts 316°
2026-04-25 22:26 48.28847 15.93906 12180 ft 291 kts 316°
2026-04-25 22:26 48.29322 15.93276 12336 ft 292 kts 316°
2026-04-25 22:27 48.30278 15.92008 12644 ft 294 kts 316°
2026-04-25 22:27 48.31823 15.89956 13171 ft 298 kts 316°
2026-04-25 22:27 48.33383 15.87883 13699 ft 301 kts 316°
2026-04-25 22:27 48.34960 15.85785 14176 ft 304 kts 316°
2026-04-25 22:28 48.36532 15.83693 14706 ft 304 kts 316°
2026-04-25 22:28 48.38038 15.81693 15519 ft 266 kts 316°
2026-04-25 22:28 48.39355 15.79956 15819 ft 243 kts 316°
2026-04-25 22:28 48.40594 15.78313 15762 ft 227 kts 315°
2026-04-25 22:29 48.41702 15.76842 16052 ft 204 kts 315°
2026-04-25 22:29 48.42783 15.75389 16029 ft 213 kts 315°
2026-04-25 22:29 48.43915 15.73852 16145 ft 226 kts 315°
2026-04-25 22:30 48.46390 15.70499 16551 ft 252 kts 315°
2026-04-25 22:30 48.47717 15.68711 16755 ft 265 kts 315°
2026-04-25 22:30 48.49119 15.66830 17064 ft 273 kts 316°
2026-04-25 22:30 48.50084 15.65540 17404 ft 274 kts 316°
2026-04-25 22:31 48.51981 15.63003 18103 ft 276 kts 316°
2026-04-25 22:31 48.53417 15.61080 18585 ft 277 kts 315°
2026-04-25 22:31 48.54856 15.59149 19057 ft 277 kts 315°
2026-04-25 22:31 48.56293 15.57217 19555 ft 276 kts 315°
2026-04-25 22:32 48.57729 15.55283 20043 ft 276 kts 315°
2026-04-25 22:32 48.59155 15.53361 20533 ft 275 kts 314°
2026-04-25 22:32 48.60592 15.51419 20892 ft 280 kts 314°
2026-04-25 22:32 48.62062 15.49429 21142 ft 288 kts 314°
2026-04-25 22:33 48.63572 15.47382 21397 ft 296 kts 314°
2026-04-25 22:33 48.65122 15.45281 21668 ft 303 kts 314°
2026-04-25 22:33 48.66683 15.43163 21905 ft 310 kts 314°
2026-04-25 22:33 48.68308 15.40959 22152 ft 317 kts 314°
2026-04-25 22:34 48.69961 15.38715 22422 ft 323 kts 314°
2026-04-25 22:34 48.71658 15.36410 22701 ft 329 kts 314°
2026-04-25 22:34 48.73379 15.34073 22968 ft 335 kts 314°
2026-04-25 22:34 48.75129 15.31693 23233 ft 341 kts 314°
2026-04-25 22:35 48.76904 15.29275 23508 ft 346 kts 314°
2026-04-25 22:35 48.78707 15.26819 23732 ft 351 kts 314°
2026-04-25 22:35 48.80537 15.24332 23968 ft 355 kts 314°
2026-04-25 22:35 48.82386 15.21810 24207 ft 360 kts 314°
2026-04-25 22:36 48.84228 15.19289 24406 ft 364 kts 314°
2026-04-25 22:36 48.86117 15.16702 24652 ft 367 kts 314°
2026-04-25 22:36 48.88004 15.14063 24806 ft 368 kts 315°
2026-04-25 22:36 48.89720 15.11204 25088 ft 365 kts 308°
2026-04-25 22:37 48.91211 15.08103 25353 ft 362 kts 303°
2026-04-25 22:37 48.92604 15.04923 25707 ft 362 kts 303°
2026-04-25 22:37 48.93967 15.01678 25944 ft 366 kts 302°
2026-04-25 22:37 48.95324 14.98374 26174 ft 371 kts 302°
2026-04-25 22:38 48.96689 14.95022 26427 ft 374 kts 302°
2026-04-25 22:38 48.98047 14.91682 26672 ft 378 kts 302°
2026-04-25 22:38 48.99437 14.88266 26927 ft 381 kts 302°
2026-04-25 22:38 49.00844 14.84816 27179 ft 385 kts 302°
2026-04-25 22:39 49.02259 14.81348 27458 ft 388 kts 302°
2026-04-25 22:39 49.03690 14.77843 27715 ft 392 kts 302°
2026-04-25 22:39 49.05137 14.74297 27986 ft 395 kts 302°
2026-04-25 22:39 49.06576 14.70769 28244 ft 399 kts 302°
2026-04-25 22:40 49.08049 14.67150 28514 ft 402 kts 303°
2026-04-25 22:40 49.09519 14.63529 28775 ft 405 kts 303°
2026-04-25 22:40 49.11009 14.59850 29039 ft 408 kts 303°
2026-04-25 22:40 49.12507 14.56153 29323 ft 412 kts 303°
2026-04-25 22:41 49.14021 14.52415 29609 ft 415 kts 303°
2026-04-25 22:41 49.15538 14.48663 29881 ft 418 kts 303°
2026-04-25 22:41 49.17073 14.44862 30170 ft 421 kts 303°
2026-04-25 22:41 49.18611 14.41045 30414 ft 424 kts 303°
2026-04-25 22:42 49.20166 14.37179 30650 ft 427 kts 303°
2026-04-25 22:42 49.21722 14.33306 30902 ft 430 kts 303°
2026-04-25 22:42 49.23272 14.29440 31129 ft 432 kts 303°
2026-04-25 22:42 49.24845 14.25511 31383 ft 435 kts 303°
2026-04-25 22:43 49.26433 14.21542 31629 ft 437 kts 303°
2026-04-25 22:43 49.28026 14.17552 31891 ft 439 kts 303°
2026-04-25 22:43 49.29620 14.13556 32150 ft 441 kts 303°
2026-04-25 22:43 49.31214 14.09552 32410 ft 442 kts 303°
2026-04-25 22:44 49.32820 14.05509 32672 ft 443 kts 303°
2026-04-25 22:44 49.34423 14.01471 32964 ft 444 kts 303°
2026-04-25 22:44 49.36010 13.97465 33228 ft 445 kts 303°
2026-04-25 22:44 49.37614 13.93411 33476 ft 446 kts 303°
2026-04-25 22:45 49.39228 13.89325 33758 ft 446 kts 303°
2026-04-25 22:45 49.40811 13.85236 34026 ft 447 kts 302°
2026-04-25 22:45 49.42320 13.81040 34258 ft 448 kts 300°
2026-04-25 22:45 49.43741 13.76785 34504 ft 449 kts 298°
2026-04-25 22:46 49.45130 13.72500 34751 ft 449 kts 298°
2026-04-25 22:46 49.46522 13.68189 35004 ft 449 kts 298°
2026-04-25 22:46 49.47915 13.63904 35251 ft 449 kts 298°
2026-04-25 22:46 49.49324 13.59605 35512 ft 449 kts 298°
2026-04-25 22:47 49.50738 13.55318 35768 ft 449 kts 299°